Powrót do katalogu

CZ-6A DEB

AktywnyPO
NORAD 61416·DEBRIS·🇨🇳 China

Wystrzelony Aug 6, 2024 z Taiyuan Satellite Launch Center

Loading…

Następne Przeloty (najbliższe 24 godziny)

TLE

ŚwieżeSource: Space-Track

Epoka: Sep 12, 2026, 22:47 UTC

1 61416U 24140YH  26255.94931451  .00001472  00000-0  34675-3 0  9997
2 61416  88.8822 249.4117 0072707 326.7560  32.9091 14.52230403109262

Śledź CZ-6A DEB w czasie rzeczywistym z AllMySat

Download on the App Store